RH
25 29 32 29 26 24 24 25 26 25 26 26 27 29 30 28 25 24 24 23 22 20 17 17 16 14 14 13 13 13 12 12 12 12 12 11 11 11 11 11 11 12 11 11 11 11 12 13 13 13 12 12 12 12 12 13 14 15 16 16 15 15 15 16 17 17 17 17 17 17 17 18 18 18 19 19 21 22 23 23 23 23 22 20 20 21
27 30 31 28 25 24 24 25 26 27 27 27 28 29 29 29 28 26 27 26 25 22 18 17 18 15 15 14 14 14 13 12 12 12 12 11 11 11 11 11 11 12 12 12 11 11 12 13 13 13 12 12 12 12 12 13 13 15 16 17 17 17 18 18 18 18 17 16 16 16 17 18 19 20 20 21 23 23 23 23 23 22 21 20 20 21
31 32 30 29 28 26 26 27 28 29 29 30 31 31 31 32 30 27 28 29 28 26 22 21 20 17 16 16 14 14 13 12 12 12 11 11 12 11 11 11 11 12 12 12 11 10 12 13 13 13 13 12 12 12 12 13 14 15 16 18 19 19 20 20 19 18 17 16 16 16 18 19 20 21 21 23 23 23 22 22 21 21 20 20 21 22
33 33 31 31 32 31 30 29 30 30 31 33 33 33 33 33 32 29 28 30 29 27 26 25 23 20 18 16 15 15 14 13 13 12 12 12 12 12 12 12 12 12 13 12 11 11 12 13 13 13 13 13 13 13 13 14 15 16 16 18 20 21 20 20 20 19 17 16 17 17 19 20 21 21 22 22 23 22 21 21 21 21 21 21 22 23
29 30 31 32 33 33 33 32 32 33 32 33 35 35 34 33 33 30 28 29 28 26 27 26 24 22 20 19 17 17 16 16 15 15 14 13 13 13 13 13 13 13 13 13 12 12 13 13 13 13 14 14 14 14 14 15 17 17 17 19 21 21 20 20 20 19 18 17 18 18 20 20 21 21 22 22 22 21 21 21 22 22 22 22 23 25
26 27 29 31 33 34 34 34 36 36 32 31 34 35 33 32 32 31 31 31 29 29 28 29 28 24 21 22 21 20 19 19 19 18 17 16 15 15 15 14 14 13 14 14 14 13 14 13 14 14 15 15 15 15 15 16 17 18 18 17 19 19 19 20 19 20 19 18 19 19 20 20 21 21 21 21 22 22 22 22 22 23 23 24 25 26
25 26 27 30 32 34 35 36 37 37 33 30 34 36 33 32 33 35 35 34 33 33 32 32 32 29 25 24 23 22 22 21 20 20 19 18 17 16 16 14 14 14 15 16 16 15 15 15 15 15 15 15 15 15 16 16 18 18 17 16 17 18 18 19 19 20 20 19 19 19 20 21 21 21 21 22 22 22 22 22 23 25 26 26 26 27
25 25 27 29 31 33 34 34 34 35 34 31 34 37 35 35 38 39 39 39 38 37 37 37 36 35 30 26 25 23 22 22 20 20 19 18 17 16 16 15 15 15 16 17 18 17 18 17 16 16 16 16 16 16 17 17 18 18 18 18 18 18 19 19 19 20 20 20 20 20 21 21 21 21 22 22 22 22 22 24 26 27 27 27 27 28
28 29 31 32 33 34 33 31 33 36 34 32 37 40 40 41 43 44 42 44 45 41 39 38 37 39 32 25 26 24 22 22 20 19 18 17 17 16 17 17 16 17 17 18 18 18 20 20 20 19 18 18 18 18 18 18 18 18 19 19 19 20 20 20 20 20 21 21 21 21 21 21 22 22 22 22 22 23 24 26 28 28 27 28 29 29
32 33 34 37 37 36 34 34 37 37 34 36 41 43 48 52 51 50 47 46 48 45 40 39 38 39 31 22 25 24 22 22 19 19 19 17 17 17 17 18 17 18 17 18 18 19 20 21 21 21 20 20 20 19 20 19 19 19 19 20 20 21 21 22 22 22 22 22 22 22 22 22 23 23 23 23 24 25 26 27 28 28 29 29 30 30
33 33 33 35 35 34 35 39 41 39 37 40 43 44 52 57 56 59 56 50 49 44 39 39 38 38 32 24 25 25 24 24 21 19 20 19 19 18 18 18 17 18 18 18 18 19 20 21 21 21 20 21 20 20 20 20 20 20 19 20 21 22 23 24 25 25 24 24 23 24 23 24 24 24 24 24 26 26 27 27 28 29 29 30 31 31
35 34 34 35 34 34 35 37 40 42 40 41 44 47 52 56 57 60 57 51 50 44 38 37 36 35 31 24 24 24 24 25 23 22 21 21 20 19 19 19 18 18 19 20 20 19 20 21 20 20 20 20 20 19 20 19 20 21 20 21 22 24 25 25 26 26 26 26 25 26 26 26 26 25 26 26 26 27 27 29 30 30 31 31 31 31
39 37 39 39 36 38 40 39 42 44 41 43 46 48 54 59 57 55 56 55 53 43 37 37 36 32 28 23 23 23 22 24 24 24 23 22 22 21 20 19 18 19 20 21 22 21 21 21 20 20 20 20 19 18 18 18 19 21 21 21 22 23 25 26 28 28 28 28 28 27 27 27 28 28 27 27 27 28 28 30 31 31 32 32 32 32
42 39 40 41 40 43 45 44 46 47 47 47 45 47 56 60 58 58 59 57 51 42 37 39 38 34 28 24 23 21 21 24 24 24 23 23 24 23 22 21 20 21 22 22 22 22 21 21 21 21 21 21 20 19 19 20 21 23 23 23 23 24 26 27 28 30 30 30 30 29 28 28 29 29 28 27 28 29 29 30 31 32 32 33 33 33
49 41 37 41 46 47 46 46 49 52 54 51 46 48 53 54 57 59 56 51 46 43 42 42 41 37 29 25 25 24 24 24 24 25 25 25 26 26 25 24 23 23 23 24 24 24 23 22 22 22 22 22 21 22 23 24 24 25 26 26 26 27 28 29 29 29 30 30 30 30 30 30 30 29 29 28 28 30 31 32 33 34 33 33 33 34
59 48 39 43 48 48 46 46 49 53 56 53 50 51 49 47 52 54 52 49 46 47 47 42 41 38 29 25 26 28 27 26 27 27 27 27 27 27 27 27 27 27 26 26 26 25 25 25 24 24 23 22 22 24 26 26 26 26 27 27 27 28 29 29 29 29 29 30 30 31 32 32 31 30 30 30 30 31 32 33 34 35 35 34 34 34
61 55 47 47 50 51 50 48 48 52 55 54 53 52 48 48 51 53 54 51 48 52 47 38 38 37 31 29 28 29 30 29 29 29 29 29 28 27 27 28 29 29 28 28 27 26 26 26 26 26 25 24 23 24 26 27 27 27 28 29 30 31 30 30 30 30 30 29 29 30 31 32 32 31 30 30 31 32 32 33 34 35 36 36 36 35
63 60 52 48 51 53 53 54 52 52 53 56 56 52 47 49 52 55 60 56 53 57 50 39 37 36 35 36 32 32 33 31 30 30 30 30 30 29 29 30 30 29 29 28 26 25 25 26 27 27 27 26 25 26 27 29 29 30 31 32 33 33 33 33 33 32 32 31 31 31 32 32 33 32 32 32 32 32 32 33 33 35 36 37 37 37
68 68 61 51 51 56 57 57 55 53 53 57 60 57 54 56 54 55 61 61 58 60 57 48 43 37 37 38 34 32 34 32 31 31 30 31 32 31 30 30 31 30 29 27 26 25 25 27 28 28 28 28 28 29 30 32 32 31 32 33 34 36 36 36 35 35 35 34 34 35 34 34 34 34 35 35 34 33 33 33 33 35 37 38 38 39
70 73 71 57 53 59 60 56 57 56 54 56 59 61 61 60 58 57 60 61 59 60 60 56 52 44 39 39 36 33 33 33 32 32 33 34 34 33 31 30 31 30 29 29 29 28 28 30 31 30 30 31 33 33 33 35 36 34 34 34 35 37 39 39 38 38 38 38 37 37 37 37 37 36 36 37 36 35 35 35 36 37 38 40 40 40
73 77 77 67 60 61 58 56 60 59 56 59 61 62 61 60 60 61 62 60 59 61 62 61 61 53 41 37 36 34 34 35 33 33 35 37 36 35 35 34 33 32 33 35 36 34 32 32 33 32 32 35 38 38 37 39 40 40 41 40 40 40 39 40 40 40 40 40 40 39 39 40 39 38 38 37 37 37 37 38 39 40 41 42 42 42
76 79 84 80 71 65 59 58 61 60 59 63 65 64 63 60 61 66 66 61 59 62 63 63 67 61 44 35 33 33 34 35 35 36 38 38 38 38 40 41 40 39 40 41 40 39 38 36 35 35 35 38 42 42 41 42 42 42 43 44 45 44 40 39 40 40 41 41 41 41 41 41 41 40 39 38 38 38 39 41 43 43 42 42 43 43
74 82 90 88 78 71 66 61 61 62 63 66 67 67 66 63 62 66 68 63 61 65 65 66 74 68 48 33 33 35 36 37 38 38 39 39 38 39 41 42 42 42 43 44 42 40 40 39 39 40 40 42 44 44 44 44 44 43 43 44 45 45 44 42 42 42 42 42 42 42 42 42 41 41 40 39 39 41 43 44 44 44 42 42 44 45
74 82 89 87 82 77 71 65 62 62 63 65 64 66 69 67 65 66 67 64 64 67 65 69 76 67 47 35 34 36 36 36 36 35 36 38 37 37 38 37 39 40 41 44 44 43 43 43 43 44 45 45 46 46 46 46 47 46 45 45 46 47 47 47 46 46 46 45 45 46 45 43 42 42 41 40 41 44 47 47 45 44 43 43 44 45
72 75 80 84 88 87 82 77 68 60 60 64 66 68 69 68 68 69 67 66 69 67 63 68 72 60 45 38 36 36 35 34 32 32 33 35 35 35 36 36 39 42 44 44 45 46 47 46 47 48 48 49 48 49 49 49 50 50 50 49 49 49 49 49 48 48 49 48 48 48 47 46 45 44 43 42 43 47 50 48 46 45 44 44 44 45
71 74 81 90 95 93 86 78 67 60 62 67 70 72 71 70 72 71 69 73 75 68 62 66 66 55 45 42 40 37 34 32 31 30 30 33 34 34 35 37 40 45 48 48 47 48 48 48 50 52 53 53 54 55 55 54 53 53 51 48 48 49 50 49 48 49 50 50 48 47 46 46 47 46 46 45 47 50 51 48 47 46 45 45 44 44
76 79 81 86 89 84 75 68 62 63 70 72 71 72 71 73 74 72 74 76 71 67 66 64 61 57 52 47 43 37 33 32 30 29 30 33 34 34 35 38 41 44 46 47 50 52 50 51 53 54 55 56 56 58 59 58 56 52 48 45 46 49 49 48 47 48 49 48 46 45 44 45 48 48 48 48 49 50 51 49 48 47 47 47 45 44
73 73 66 68 74 73 67 61 56 61 71 73 72 70 67 67 70 73 76 71 65 75 79 66 59 63 61 53 46 40 36 34 31 30 32 34 35 36 36 38 42 43 43 48 54 55 54 55 55 54 55 56 57 60 61 60 54 49 47 46 46 48 48 47 47 45 43 42 41 41 42 45 48 49 49 50 49 49 50 50 48 48 50 49 47 47
72 72 61 60 67 67 68 68 63 64 71 72 72 70 65 63 66 70 71 65 65 77 78 65 63 68 64 56 51 43 38 36 35 35 37 36 36 38 38 39 42 42 44 52 57 58 58 57 55 54 55 56 58 60 61 59 53 49 49 49 48 48 47 46 45 42 40 39 38 40 43 46 48 49 51 52 50 50 51 51 50 50 50 50 50 51
80 83 74 72 78 79 80 80 77 77 80 79 77 73 71 69 68 69 70 66 66 71 69 66 70 70 62 58 55 47 42 41 41 42 42 40 37 37 39 42 43 43 48 56 60 60 60 58 55 54 54 54 56 60 61 59 55 53 52 49 48 47 46 45 43 42 41 40 40 44 47 48 50 52 54 54 53 53 53 52 52 51 50 50 51 53
82 87 79 78 89 90 84 83 86 88 88 86 84 80 78 77 73 72 74 72 73 74 69 69 77 75 63 56 53 48 46 48 49 47 43 40 41 44 48 52 51 50 52 55 56 56 55 54 52 51 52 53 55 58 59 57 54 53 51 48 45 45 44 43 42 42 42 42 44 48 50 51 53 56 57 56 56 55 54 53 52 51 51 52 53 57
79 86 83 84 93 93 86 87 89 88 89 91 88 80 75 75 75 74 74 72 72 74 72 74 80 75 63 58 57 54 53 56 57 54 53 54 58 59 59 59 56 54 53 53 51 50 50 51 52 54 56 56 57 59 60 56 53 51 49 45 44 43 41 41 42 43 44 47 51 52 53 55 57 57 57 57 56 54 53 53 52 52 53 55 57 61
71 80 83 85 90 89 85 87 87 87 95 97 87 75 70 71 73 74 73 69 67 71 78 82 83 80 77 78 76 71 67 66 65 66 69 71 69 65 61 60 58 56 55 53 50 49 49 50 52 55 58 58 59 62 62 58 56 54 51 47 44 43 41 41 42 42 43 49 54 56 58 59 59 57 56 55 54 54 54 54 55 56 58 61 63 65
63 72 77 80 88 89 82 84 92 97 98 91 79 74 76 74 73 74 73 70 71 79 87 91 92 93 92 90 87 83 77 72 73 78 78 75 70 66 66 66 63 59 57 55 52 49 48 49 48 48 50 53 56 59 59 58 57 56 53 49 47 46 45 44 44 43 44 50 56 59 62 62 60 58 57 56 54 55 56 57 58 61 63 66 68 68
50 55 59 63 75 80 74 80 97 98 85 77 75 78 79 76 76 78 76 75 83 92 93 93 95 96 94 91 90 87 78 73 79 83 81 79 79 77 73 70 66 62 59 56 54 51 50 50 49 46 46 48 51 53 56 58 58 57 55 54 52 51 49 47 46 45 48 53 58 62 64 63 63 63 60 59 59 59 59 59 61 63 66 68 70 71
42 43 45 47 55 61 60 67 79 73 63 69 80 81 78 78 81 83 81 81 88 92 91 92 93 93 93 93 92 88 79 76 80 83 81 83 87 87 83 78 73 69 64 60 58 57 56 56 56 54 52 50 49 50 52 56 58 57 57 58 57 55 54 53 52 50 51 56 60 63 65 64 65 64 63 63 63 62 61 61 63 65 67 69 71 72
52 55 57 57 58 61 62 60 56 50 50 63 75 76 76 77 78 81 84 84 87 90 92 93 92 91 92 93 94 92 86 80 81 86 85 85 90 93 91 86 82 76 71 68 67 65 63 64 63 62 59 56 53 51 52 56 59 59 61 63 64 62 61 60 58 55 56 60 61 62 64 64 65 66 65 63 63 62 61 61 63 66 69 69 70 71
56 61 66 68 65 65 69 70 69 70 76 80 81 78 76 76 78 83 90 92 92 95 97 95 93 92 91 91 92 91 88 84 84 87 87 88 92 93 90 86 82 79 76 74 72 69 66 64 63 63 61 59 58 58 59 62 65 66 66 67 66 64 62 60 59 58 59 61 61 61 64 65 65 67 66 63 61 62 63 63 64 67 70 71 71 72
49 53 58 65 66 62 65 71 75 83 96 101 94 84 77 77 82 89 98 100 94 93 95 94 94 94 93 93 91 88 89 88 83 80 84 90 92 89 87 83 80 78 78 76 73 71 69 66 64 63 63 63 64 66 68 70 72 72 70 69 67 65 64 63 63 61 59 59 60 62 66 67 66 66 65 62 61 62 63 63 65 67 70 72 74 74
44 45 47 54 59 58 63 69 66 71 87 95 88 75 67 68 79 93 100 98 92 92 93 92 91 93 94 92 88 86 89 90 83 78 80 86 85 82 81 78 74 74 77 77 75 74 72 69 66 63 63 65 67 68 71 74 74 71 69 71 72 71 71 71 70 66 62 60 61 65 67 67 67 66 65 64 63 61 59 59 61 64 68 72 73 73
51 52 52 53 55 56 63 71 68 66 74 77 72 63 55 57 73 93 100 94 87 87 88 88 88 89 89 88 86 86 88 89 86 83 81 82 80 76 74 73 71 71 73 75 76 77 76 73 69 64 62 65 67 69 73 78 78 74 71 72 75 76 76 76 76 72 69 67 65 66 68 68 68 67 67 66 65 63 60 60 61 64 69 75 77 76
60 63 63 62 62 62 65 70 70 66 64 63 59 52 49 54 64 75 83 85 84 83 86 89 89 85 84 85 85 86 86 85 84 83 82 81 78 72 70 70 70 71 71 71 72 76 78 76 72 69 66 65 68 72 76 80 83 81 79 77 78 80 79 80 80 76 73 70 67 66 69 71 70 70 69 69 68 66 64 62 63 66 70 75 77 77
60 67 67 61 60 62 63 63 65 64 57 53 52 48 49 55 56 54 62 73 78 79 81 80 78 78 82 83 81 80 80 79 78 77 76 75 74 72 71 71 71 72 71 69 68 70 74 74 73 72 71 69 71 73 76 81 83 84 82 81 81 82 82 81 81 77 73 71 69 69 71 73 73 73 72 71 69 67 66 66 67 70 73 75 77 78
51 57 59 56 56 64 67 62 61 63 57 50 52 51 47 49 51 52 57 61 63 65 65 62 61 64 71 74 73 73 74 72 71 72 71 71 71 71 71 72 73 73 71 71 69 67 68 70 71 72 73 74 75 76 77 81 83 82 83 84 84 84 84 83 82 79 76 73 73 74 75 76 76 76 75 72 69 67 67 68 71 74 77 78 78 79
48 49 56 59 59 62 65 58 51 51 49 44 45 46 45 46 50 54 55 52 51 52 53 55 55 55 56 58 58 61 66 68 67 67 67 68 68 69 71 70 70 70 70 70 70 68 67 68 68 68 70 73 76 78 80 82 84 85 86 88 88 88 87 84 83 82 81 80 79 79 79 78 77 75 73 70 68 67 69 70 72 76 79 80 82 81
42 42 50 55 51 48 49 43 38 39 37 32 33 38 42 45 46 47 49 49 49 50 50 54 56 52 48 49 50 52 59 65 67 66 66 66 64 65 68 67 65 66 67 65 65 66 66 66 65 64 65 67 70 75 77 80 83 86 87 89 90 91 90 88 86 83 83 84 83 82 81 79 76 73 71 70 69 68 68 68 72 78 81 82 83 81
39 43 51 51 49 52 49 37 32 36 32 26 29 36 39 42 43 44 48 51 54 56 59 61 59 54 50 50 50 49 48 51 59 63 64 64 62 60 62 64 63 63 63 62 62 63 64 65 64 63 62 62 64 67 71 73 76 79 81 83 86 89 90 91 90 87 85 86 85 83 82 79 75 72 71 72 72 71 70 69 71 77 83 85 85 83
40 49 55 49 46 51 48 34 30 35 33 28 33 37 38 42 44 44 46 50 52 55 57 56 56 58 58 58 59 57 49 43 45 51 55 58 58 56 56 58 59 60 59 59 60 62 62 63 63 62 61 61 61 63 65 67 69 71 74 76 79 83 86 87 87 87 88 88 87 86 85 82 79 76 74 72 72 72 73 75 76 80 84 87 86 81
44 49 49 47 48 47 40 34 34 37 34 31 31 33 34 37 41 42 45 48 49 49 49 49 51 55 58 58 60 62 58 48 43 46 48 46 46 46 45 45 46 50 54 57 59 60 60 61 61 61 60 59 60 62 63 63 64 66 69 72 76 80 82 83 82 82 83 85 86 87 86 84 81 79 77 76 73 71 71 76 79 81 84 87 87 84
54 50 42 50 60 50 38 38 40 40 36 29 27 32 34 36 41 45 46 46 47 48 50 51 51 51 51 50 50 52 51 45 43 45 45 40 37 37 36 35 35 35 40 47 53 54 56 58 59 60 59 58 59 62 62 61 62 63 66 70 75 80 83 83 81 79 78 79 81 83 84 84 82 81 80 78 76 72 69 71 74 76 79 81 82 83
57 49 41 52 60 51 41 41 44 46 43 35 33 39 42 44 49 51 50 50 51 54 56 57 55 51 49 46 44 45 44 40 37 39 40 37 33 31 30 30 31 31 31 36 41 46 51 54 55 56 56 56 58 60 60 58 57 59 62 66 69 73 78 80 81 81 78 77 77 78 79 81 81 82 82 81 79 74 71 71 73 74 76 75 74 76